User: anonymous   Login
Location: *
(46.4000°N, 12.6667°E)
Time: 15:27:08
(UTC+00:00)
Language:

ISS - Orbit

View from above orbital plane
View from above orbital plane
View from above satellite
View from above satellite

Ground track
Ground track

The orbit data is extracted from the following two-line orbital elements,

1 25544U 98067A   22280.32849466  .00013114  00000-0  23909-3 0  9992
2 25544  51.6419 141.0021 0002941 263.1815 259.8831 15.49792722362576
Epoch (UTC): 07 October 2022 07:53:01
Eccentricity: 0.0002941
inclination: 51.6419°
perigee height: 415 km
apogee height: 419 km
right ascension of ascending node: 141.0021°
argument of perigee: 263.1815°
revolutions per day: 15.49792722
mean anomaly at epoch: 259.8831°
orbit number at epoch: 36257

The dashed part of the orbit path shows where the satellite is in the earth's shadow,  

DLR